Regional Weather Roundup
Issued by NWS

Home | Current Version | Previous Version | Text Only | Print | Product List | Glossary Off
Versions: 1 2 3 4 5 6 7 8 9 10 11 12 13 14 15 16 17 18 19 20 21 22 23 24 25 26 27 28 29 30 31 32 33 34 35 36 37 38 39 40 41 42 43 44 45 46 47 48 49 50

000
ASUS43 KBIS 030310
RWRND

NORTH DAKOTA REGIONAL WEATHER ROUNDUP
NATIONAL WEATHER SERVICE BISMARCK ND
1000 PM CDT THU JUL 02 2015

NOTE: "FAIR" INDICATES FEW OR NO CLOUDS BELOW 12,000 FEET WITH NO
SIGNIFICANT WEATHER AND/OR OBSTRUCTIONS TO VISIBILITY.


NDZ001>003-009>011-017-030400-
NORTHWEST NORTH DAKOTA

CITY           SKY/WX    TMP DP  RH WIND       PRES   REMARKS
WILLISTON      MOCLDY    76  63  64 NE7       30.00R
MINOT          CLOUDY    71  64  78 W8        29.96R HAZE
MINOT AFB      MOCLDY    67  67 100 W6        29.95S FOG
$$

NDZ018>021-031>035-040>046-030400-
SOUTHWEST NORTH DAKOTA

CITY           SKY/WX    TMP DP  RH WIND       PRES   REMARKS
BISMARCK       CLOUDY    72  64  76 CALM      29.98R HAZE
DICKINSON      CLEAR     71  59  65 NE5       30.02R HAZE
GARRISON         N/A     68  65  90 NW6       29.98R
HETTINGER ARPT CLEAR     66  58  75 CALM      30.05R HAZE
$$

NDZ004>008-012>016-024-026-027-054-030400-
NORTHEAST NORTH DAKOTA

CITY           SKY/WX    TMP DP  RH WIND       PRES   REMARKS
GRAND FORKS    CLOUDY    69  65  86 SW6       29.88S
GRND FRKS AFB  PTCLDY    67  63  89 SW5       29.90R
DEVILS LAKE    MOCLDY    70  61  73 W7        29.92R
$$

NDZ022-023-025-028>030-036>039-047>053-030400-
SOUTHEAST NORTH DAKOTA

CITY           SKY/WX    TMP DP  RH WIND       PRES   REMARKS
FARGO          PTCLDY    67  55  65 S8        29.93R
JAMESTOWN      CLEAR     71  64  78 S7        29.93R
$$



USA.gov is the U.S. government's official web portal to all federal, state and local government web resources and services.